QPF
0.16 0.12 0.09 0.09 0.09 0.08 0.06 0.07 0.08 0.09 0.08 0.06 0.04 0.03 0.02 0.04 0.02 0.02 0.02 0.03 0.05 0.07 0.07 0.07 0.07 0.06 0.05 0.05 0.06 0.05 0.05 0.06 0.07 0.07 0.07 0.04 0.03 0.03
0.15 0.16 0.13 0.10 0.09 0.09 0.07 0.07 0.08 0.09 0.09 0.07 0.06 0.04 0.03 0.03 0.03 0.03 0.03 0.04 0.04 0.03 0.02 0.01 0.02 0.03 0.04 0.05 0.04 0.03 0.03 0.04 0.04 0.05 0.05 0.04 0.03 0.03
0.08 0.10 0.12 0.12 0.09 0.09 0.09 0.09 0.08 0.07 0.09 0.07 0.06 0.05 0.03 0.04 0.04 0.04 0.04 0.03 0.02 0.02 0.02 0.01 0.01 0.01 0.01 0.03 0.04 0.03 0.03 0.03 0.04 0.04 0.04 0.04 0.04 0.04
0.06 0.07 0.06 0.06 0.07 0.08 0.08 0.09 0.08 0.07 0.07 0.06 0.05 0.05 0.05 0.04 0.05 0.05 0.03 0.03 0.03 0.03 0.02 0.01 0.01 0.01 0.01 0.02 0.02 0.03 0.03 0.03 0.03 0.03 0.03 0.03 0.04 0.06
0.04 0.05 0.05 0.06 0.07 0.07 0.07 0.06 0.06 0.05 0.06 0.04 0.04 0.05 0.04 0.02 0.04 0.04 0.03 0.04 0.03 0.04 0.04 0.03 0.02 0.02 0.02 0.01 0.02 0.02 0.02 0.02 0.03 0.03 0.03 0.03 0.03 0.04
0.03 0.04 0.04 0.04 0.04 0.05 0.05 0.05 0.06 0.06 0.05 0.04 0.04 0.04 0.04 0.03 0.03 0.03 0.03 0.04 0.03 0.03 0.04 0.04 0.03 0.03 0.03 0.02 0.03 0.03 0.03 0.02 0.02 0.03 0.03 0.04 0.05 0.04
0.02 0.03 0.03 0.03 0.03 0.05 0.05 0.06 0.06 0.06 0.05 0.04 0.03 0.03 0.03 0.03 0.03 0.03 0.03 0.05 0.04 0.03 0.04 0.04 0.04 0.04 0.04 0.04 0.03 0.04 0.03 0.03 0.03 0.03 0.03 0.04 0.04 0.04
0.02 0.02 0.02 0.03 0.03 0.02 0.03 0.03 0.05 0.05 0.05 0.05 0.04 0.04 0.04 0.04 0.05 0.04 0.04 0.04 0.04 0.04 0.04 0.04 0.03 0.02 0.03 0.03 0.04 0.04 0.03 0.02 0.02 0.04 0.05 0.04 0.04 0.05
0.03 0.03 0.03 0.02 0.02 0.02 0.02 0.02 0.01 0.02 0.03 0.03 0.03 0.03 0.04 0.05 0.05 0.05 0.06 0.05 0.05 0.04 0.04 0.04 0.02 0.02 0.02 0.03 0.03 0.03 0.03 0.02 0.02 0.04 0.06 0.05 0.05 0.05
0.03 0.03 0.03 0.02 0.02 0.03 0.02 0.02 0.02 0.02 0.03 0.02 0.02 0.03 0.04 0.05 0.06 0.06 0.06 0.05 0.05 0.04 0.05 0.05 0.05 0.04 0.03 0.04 0.04 0.05 0.05 0.04 0.03 0.03 0.04 0.05 0.06 0.06
0.02 0.03 0.03 0.02 0.03 0.03 0.02 0.02 0.02 0.02 0.03 0.03 0.03 0.04 0.04 0.04 0.05 0.04 0.04 0.04 0.04 0.04 0.04 0.04 0.05 0.06 0.05 0.05 0.05 0.06 0.05 0.04 0.03 0.03 0.03 0.03 0.03 0.03
0.02 0.02 0.02 0.03 0.03 0.04 0.02 0.02 0.03 0.04 0.03 0.03 0.03 0.03 0.02 0.03 0.04 0.03 0.02 0.03 0.03 0.03 0.03 0.04 0.04 0.07 0.08 0.06 0.05 0.04 0.04 0.04 0.04 0.03 0.02 0.02 0.02 0.02
0.02 0.01 0.02 0.03 0.03 0.02 0.01 0.02 0.03 0.04 0.03 0.03 0.03 0.03 0.03 0.03 0.03 0.03 0.02 0.03 0.03 0.04 0.04 0.04 0.05 0.07 0.08 0.09 0.06 0.05 0.05 0.05 0.05 0.04 0.03 0.02 0.02 0.02
0.02 0.03 0.03 0.02 0.01 0.01 0.01 0.01 0.02 0.02 0.02 0.02 0.03 0.03 0.02 0.02 0.02 0.02 0.03 0.03 0.03 0.04 0.05 0.05 0.05 0.07 0.07 0.08 0.08 0.06 0.05 0.05 0.05 0.05 0.04 0.03 0.01 0.01
0.01 0.02 0.01 0.01 0.01 0.00 0.00 0.00 0.01 0.01 0.01 0.02 0.02 0.02 0.02 0.01 0.02 0.02 0.02 0.02 0.03 0.03 0.03 0.03 0.04 0.06 0.07 0.07 0.08 0.08 0.08 0.07 0.05 0.04 0.04 0.03 0.02 0.02
0.00 0.00 0.00 0.00 0.00 0.00 0.00 0.00 0.00 0.01 0.01 0.02 0.02 0.01 0.01 0.01 0.02 0.02 0.02 0.03 0.02 0.03 0.03 0.04 0.06 0.06 0.06 0.07 0.07 0.06 0.07 0.06 0.06 0.05 0.04 0.03 0.02 0.02
0.01 0.01 0.01 0.01 0.01 0.01 0.02 0.02 0.01 0.01 0.02 0.02 0.02 0.02 0.02 0.01 0.01 0.01 0.02 0.02 0.02 0.03 0.03 0.04 0.06 0.06 0.06 0.06 0.07 0.06 0.06 0.04 0.05 0.05 0.06 0.05 0.04 0.03
0.03 0.03 0.03 0.03 0.03 0.03 0.03 0.03 0.02 0.02 0.02 0.02 0.02 0.02 0.02 0.01 0.01 0.02 0.02 0.02 0.02 0.03 0.03 0.03 0.04 0.04 0.05 0.04 0.04 0.04 0.04 0.03 0.04 0.05 0.05 0.06 0.06 0.05
0.04 0.04 0.03 0.03 0.03 0.02 0.02 0.02 0.02 0.02 0.02 0.02 0.02 0.02 0.02 0.02 0.02 0.02 0.02 0.02 0.03 0.04 0.04 0.04 0.04 0.05 0.05 0.04 0.03 0.03 0.03 0.04 0.04 0.04 0.04 0.04 0.05 0.05
0.04 0.04 0.04 0.04 0.03 0.02 0.01 0.01 0.01 0.02 0.03 0.04 0.03 0.02 0.03 0.03 0.02 0.02 0.02 0.03 0.04 0.04 0.04 0.04 0.05 0.05 0.05 0.04 0.03 0.02 0.02 0.03 0.03 0.02 0.02 0.02 0.02 0.02
0.02 0.02 0.03 0.04 0.04 0.02 0.01 0.01 0.02 0.03 0.04 0.03 0.02 0.02 0.03 0.03 0.02 0.01 0.01 0.02 0.02 0.03 0.03 0.04 0.05 0.04 0.05 0.05 0.04 0.02 0.01 0.01 0.02 0.02 0.02 0.02 0.02 0.02
0.01 0.01 0.01 0.01 0.02 0.02 0.02 0.02 0.02 0.03 0.03 0.03 0.03 0.02 0.02 0.02 0.02 0.01 0.01 0.01 0.02 0.02 0.02 0.02 0.02 0.03 0.04 0.05 0.04 0.03 0.02 0.02 0.02 0.01 0.02 0.02 0.02 0.02
0.01 0.01 0.01 0.01 0.01 0.02 0.03 0.02 0.02 0.03 0.03 0.02 0.02 0.02 0.02 0.02 0.02 0.02 0.02 0.02 0.02 0.02 0.02 0.02 0.03 0.03 0.04 0.04 0.04 0.04 0.02 0.02 0.02 0.02 0.01 0.01 0.01 0.01
MSLP
1013.64 1013.53 1013.43 1013.34 1013.26 1013.16 1013.04 1012.89 1012.70 1012.47 1012.23 1011.98 1011.75 1011.56 1011.44 1011.40 1011.45 1011.57 1011.75 1011.97 1012.22 1012.46 1012.68 1012.88 1013.03 1013.15 1013.24 1013.31 1013.36 1013.40 1013.43 1013.45 1013.46 1013.46 1013.44 1013.40 1013.35 1013.29
1013.29 1013.19 1013.11 1013.04 1013.00 1012.95 1012.90 1012.81 1012.69 1012.52 1012.31 1012.08 1011.85 1011.65 1011.49 1011.39 1011.37 1011.43 1011.56 1011.74 1011.97 1012.21 1012.46 1012.69 1012.91 1013.09 1013.25 1013.38 1013.50 1013.59 1013.66 1013.71 1013.74 1013.74 1013.71 1013.65 1013.56 1013.45
1012.87 1012.78 1012.71 1012.67 1012.65 1012.65 1012.65 1012.63 1012.57 1012.47 1012.32 1012.13 1011.92 1011.71 1011.52 1011.38 1011.31 1011.30 1011.36 1011.49 1011.67 1011.90 1012.14 1012.40 1012.65 1012.89 1013.11 1013.32 1013.51 1013.67 1013.81 1013.91 1013.98 1014.01 1014.00 1013.94 1013.84 1013.71
1012.45 1012.36 1012.29 1012.25 1012.24 1012.27 1012.30 1012.32 1012.32 1012.28 1012.19 1012.05 1011.88 1011.68 1011.50 1011.33 1011.21 1011.15 1011.15 1011.21 1011.34 1011.53 1011.75 1012.00 1012.26 1012.54 1012.81 1013.08 1013.33 1013.57 1013.78 1013.95 1014.08 1014.16 1014.19 1014.16 1014.09 1013.97
1012.06 1011.95 1011.86 1011.80 1011.78 1011.80 1011.84 1011.89 1011.92 1011.92 1011.88 1011.79 1011.66 1011.50 1011.33 1011.17 1011.03 1010.93 1010.89 1010.90 1010.97 1011.11 1011.29 1011.51 1011.77 1012.05 1012.35 1012.66 1012.96 1013.26 1013.53 1013.77 1013.96 1014.11 1014.20 1014.23 1014.20 1014.13
1011.68 1011.55 1011.42 1011.32 1011.27 1011.25 1011.27 1011.30 1011.34 1011.36 1011.35 1011.31 1011.23 1011.12 1010.98 1010.84 1010.71 1010.61 1010.54 1010.52 1010.56 1010.64 1010.78 1010.97 1011.20 1011.47 1011.76 1012.08 1012.41 1012.74 1013.06 1013.36 1013.62 1013.83 1013.99 1014.10 1014.14 1014.15
1011.31 1011.14 1010.97 1010.81 1010.70 1010.62 1010.59 1010.58 1010.59 1010.61 1010.62 1010.61 1010.57 1010.51 1010.43 1010.33 1010.24 1010.16 1010.10 1010.07 1010.08 1010.14 1010.24 1010.39 1010.59 1010.82 1011.10 1011.40 1011.74 1012.08 1012.43 1012.77 1013.08 1013.36 1013.60 1013.78 1013.92 1014.01
1010.91 1010.70 1010.48 1010.26 1010.08 1009.93 1009.83 1009.76 1009.73 1009.72 1009.72 1009.73 1009.73 1009.72 1009.69 1009.66 1009.62 1009.59 1009.56 1009.55 1009.57 1009.61 1009.69 1009.81 1009.97 1010.17 1010.41 1010.70 1011.01 1011.36 1011.72 1012.08 1012.44 1012.77 1013.08 1013.35 1013.58 1013.76
1010.46 1010.22 1009.96 1009.69 1009.44 1009.21 1009.04 1008.91 1008.82 1008.77 1008.76 1008.78 1008.80 1008.83 1008.87 1008.90 1008.93 1008.95 1008.98 1009.01 1009.05 1009.10 1009.17 1009.27 1009.40 1009.57 1009.78 1010.03 1010.32 1010.65 1011.01 1011.39 1011.78 1012.16 1012.53 1012.86 1013.17 1013.44
1009.98 1009.72 1009.42 1009.11 1008.81 1008.53 1008.29 1008.10 1007.97 1007.89 1007.85 1007.86 1007.91 1007.98 1008.06 1008.15 1008.24 1008.33 1008.41 1008.48 1008.56 1008.63 1008.71 1008.80 1008.91 1009.06 1009.24 1009.46 1009.73 1010.04 1010.39 1010.78 1011.18 1011.59 1012.00 1012.39 1012.75 1013.09
1009.50 1009.23 1008.91 1008.58 1008.24 1007.93 1007.65 1007.42 1007.25 1007.14 1007.09 1007.10 1007.15 1007.25 1007.37 1007.50 1007.64 1007.78 1007.92 1008.04 1008.15 1008.25 1008.34 1008.43 1008.54 1008.66 1008.82 1009.02 1009.26 1009.55 1009.89 1010.27 1010.68 1011.11 1011.54 1011.96 1012.36 1012.73
1009.08 1008.79 1008.46 1008.12 1007.77 1007.44 1007.14 1006.89 1006.70 1006.58 1006.52 1006.53 1006.60 1006.70 1006.85 1007.02 1007.20 1007.38 1007.55 1007.71 1007.84 1007.97 1008.07 1008.17 1008.27 1008.38 1008.52 1008.69 1008.91 1009.18 1009.50 1009.87 1010.27 1010.70 1011.14 1011.57 1011.98 1012.36
1008.73 1008.44 1008.10 1007.74 1007.39 1007.05 1006.75 1006.50 1006.31 1006.19 1006.13 1006.14 1006.22 1006.34 1006.50 1006.69 1006.90 1007.10 1007.30 1007.48 1007.65 1007.78 1007.90 1008.00 1008.09 1008.19 1008.31 1008.45 1008.64 1008.89 1009.18 1009.53 1009.92 1010.33 1010.76 1011.19 1011.60 1011.97
1008.49 1008.16 1007.81 1007.44 1007.08 1006.73 1006.43 1006.19 1006.00 1005.89 1005.84 1005.86 1005.95 1006.08 1006.26 1006.46 1006.69 1006.91 1007.13 1007.34 1007.51 1007.66 1007.79 1007.89 1007.97 1008.05 1008.14 1008.26 1008.42 1008.63 1008.89 1009.21 1009.57 1009.97 1010.38 1010.80 1011.19 1011.56
1008.32 1007.95 1007.56 1007.16 1006.77 1006.42 1006.11 1005.86 1005.69 1005.58 1005.54 1005.57 1005.67 1005.82 1006.01 1006.24 1006.48 1006.73 1006.97 1007.19 1007.39 1007.55 1007.68 1007.79 1007.86 1007.93 1008.00 1008.08 1008.21 1008.38 1008.60 1008.88 1009.22 1009.59 1009.98 1010.38 1010.77 1011.12
1008.19 1007.75 1007.30 1006.85 1006.43 1006.04 1005.71 1005.46 1005.27 1005.16 1005.13 1005.18 1005.28 1005.45 1005.66 1005.90 1006.17 1006.44 1006.71 1006.97 1007.20 1007.39 1007.54 1007.65 1007.73 1007.79 1007.84 1007.90 1007.98 1008.12 1008.30 1008.55 1008.85 1009.20 1009.57 1009.97 1010.35 1010.70
1008.03 1007.52 1007.00 1006.49 1006.01 1005.58 1005.21 1004.92 1004.72 1004.60 1004.56 1004.60 1004.71 1004.89 1005.12 1005.39 1005.68 1005.99 1006.30 1006.60 1006.87 1007.11 1007.30 1007.44 1007.54 1007.61 1007.65 1007.70 1007.76 1007.86 1008.01 1008.23 1008.50 1008.83 1009.20 1009.58 1009.97 1010.34
1007.82 1007.25 1006.66 1006.08 1005.54 1005.05 1004.63 1004.30 1004.06 1003.91 1003.85 1003.87 1003.97 1004.14 1004.38 1004.66 1004.99 1005.34 1005.70 1006.05 1006.38 1006.68 1006.93 1007.12 1007.27 1007.37 1007.44 1007.49 1007.55 1007.64 1007.77 1007.97 1008.22 1008.54 1008.90 1009.29 1009.70 1010.09
1007.58 1006.95 1006.31 1005.68 1005.08 1004.54 1004.08 1003.69 1003.40 1003.20 1003.09 1003.08 1003.15 1003.29 1003.51 1003.79 1004.13 1004.50 1004.90 1005.31 1005.71 1006.08 1006.40 1006.68 1006.90 1007.06 1007.18 1007.27 1007.36 1007.46 1007.60 1007.79 1008.04 1008.36 1008.72 1009.12 1009.54 1009.96
1007.35 1006.70 1006.04 1005.38 1004.75 1004.17 1003.66 1003.23 1002.88 1002.62 1002.45 1002.36 1002.36 1002.45 1002.62 1002.87 1003.18 1003.55 1003.97 1004.42 1004.88 1005.32 1005.73 1006.10 1006.41 1006.67 1006.87 1007.03 1007.17 1007.32 1007.49 1007.70 1007.96 1008.29 1008.66 1009.07 1009.50 1009.93
1007.20 1006.57 1005.92 1005.27 1004.64 1004.05 1003.51 1003.04 1002.63 1002.30 1002.04 1001.86 1001.76 1001.76 1001.83 1002.00 1002.25 1002.58 1002.99 1003.44 1003.93 1004.43 1004.93 1005.39 1005.80 1006.16 1006.47 1006.73 1006.96 1007.18 1007.41 1007.66 1007.95 1008.28 1008.66 1009.08 1009.52 1009.96
1007.19 1006.61 1006.01 1005.40 1004.80 1004.23 1003.68 1003.18 1002.72 1002.31 1001.96 1001.67 1001.45 1001.31 1001.25 1001.29 1001.44 1001.68 1002.02 1002.44 1002.93 1003.46 1004.00 1004.55 1005.06 1005.53 1005.96 1006.33 1006.67 1006.98 1007.27 1007.58 1007.91 1008.27 1008.66 1009.08 1009.51 1009.94
1007.35 1006.84 1006.31 1005.77 1005.23 1004.69 1004.16 1003.64 1003.14 1002.66 1002.21 1001.80 1001.44 1001.14 1000.93 1000.81 1000.80 1000.91 1001.14 1001.48 1001.92 1002.44 1003.01 1003.60 1004.20 1004.77 1005.30 1005.79 1006.23 1006.64 1007.02 1007.39 1007.77 1008.15 1008.55 1008.97 1009.38 1009.80
Thickness
5748 5746 5745 5746 5744 5743 5742 5739 5734 5730 5733 5736 5737 5738 5737 5735 5732 5730 5729 5726 5724 5721 5719 5718 5716 5715 5713 5712 5710 5709 5707 5706 5704 5704 5703 5703 5702 5701
5741 5740 5740 5742 5741 5740 5738 5737 5735 5730 5727 5733 5732 5734 5731 5732 5728 5726 5724 5722 5721 5718 5716 5714 5712 5711 5709 5708 5706 5705 5703 5701 5700 5699 5698 5697 5697 5697
5737 5736 5734 5733 5735 5735 5733 5731 5730 5728 5723 5725 5728 5728 5725 5723 5723 5721 5721 5719 5719 5715 5713 5710 5708 5706 5705 5703 5701 5700 5698 5696 5696 5695 5694 5693 5692 5691
5730 5729 5728 5728 5725 5726 5726 5725 5723 5722 5719 5716 5719 5720 5718 5718 5717 5715 5717 5717 5715 5712 5709 5706 5704 5702 5700 5698 5696 5694 5693 5691 5690 5690 5689 5688 5687 5686
5725 5723 5722 5720 5717 5718 5717 5718 5718 5718 5715 5713 5713 5714 5714 5714 5712 5711 5713 5710 5710 5708 5704 5701 5699 5697 5694 5692 5691 5689 5687 5685 5685 5684 5683 5681 5681 5680
5719 5717 5715 5713 5711 5710 5711 5709 5709 5708 5708 5707 5707 5707 5707 5708 5706 5705 5704 5705 5704 5704 5701 5698 5695 5692 5689 5687 5685 5683 5681 5680 5679 5678 5677 5676 5675 5674
5712 5711 5709 5705 5703 5702 5703 5702 5701 5701 5701 5700 5700 5700 5700 5698 5698 5699 5698 5698 5697 5697 5695 5693 5691 5688 5685 5682 5679 5677 5675 5674 5673 5672 5671 5670 5669 5668
5704 5703 5703 5699 5695 5692 5691 5690 5689 5690 5691 5690 5691 5690 5688 5690 5690 5690 5689 5688 5687 5689 5686 5685 5685 5683 5680 5678 5674 5671 5669 5667 5666 5665 5664 5664 5663 5662
5697 5696 5697 5696 5691 5689 5685 5683 5682 5680 5679 5681 5682 5681 5681 5683 5681 5681 5680 5678 5678 5680 5678 5676 5678 5676 5674 5672 5668 5664 5662 5660 5659 5658 5657 5656 5656 5655
5690 5688 5686 5685 5683 5679 5679 5678 5678 5677 5675 5674 5674 5674 5675 5674 5672 5672 5672 5672 5672 5673 5671 5668 5670 5669 5669 5665 5660 5658 5655 5653 5652 5650 5649 5648 5648 5647
5683 5680 5677 5675 5670 5667 5668 5668 5668 5668 5667 5665 5663 5664 5663 5663 5663 5664 5665 5665 5664 5665 5665 5662 5662 5661 5660 5658 5655 5651 5649 5647 5644 5642 5641 5640 5640 5640
5675 5672 5666 5664 5659 5657 5659 5659 5657 5657 5658 5659 5657 5656 5657 5657 5655 5655 5656 5656 5657 5656 5656 5653 5654 5653 5651 5651 5649 5645 5642 5640 5637 5635 5634 5633 5633 5634
5668 5666 5662 5653 5649 5646 5646 5648 5646 5645 5648 5649 5650 5651 5652 5651 5650 5649 5648 5647 5647 5647 5648 5645 5645 5644 5642 5642 5641 5639 5637 5634 5631 5629 5627 5626 5626 5626
5659 5657 5652 5643 5639 5637 5637 5636 5634 5634 5640 5642 5642 5642 5642 5642 5641 5640 5639 5637 5636 5636 5635 5635 5635 5634 5633 5632 5631 5631 5630 5628 5625 5624 5622 5619 5618 5618
5649 5643 5639 5634 5631 5632 5629 5628 5627 5631 5632 5633 5633 5633 5634 5633 5632 5630 5630 5628 5627 5627 5627 5626 5626 5626 5625 5625 5623 5622 5621 5620 5618 5617 5616 5614 5613 5612
5638 5633 5628 5626 5625 5624 5623 5623 5624 5625 5624 5624 5624 5624 5624 5624 5623 5623 5622 5622 5620 5620 5619 5617 5616 5616 5616 5616 5616 5615 5614 5613 5611 5610 5608 5608 5607 5607
5629 5627 5625 5624 5623 5622 5621 5619 5618 5616 5616 5616 5615 5615 5615 5615 5613 5613 5611 5611 5610 5610 5610 5610 5609 5608 5607 5606 5606 5606 5605 5604 5604 5602 5600 5600 5601 5600
5618 5620 5618 5617 5615 5614 5613 5611 5610 5609 5608 5607 5606 5605 5605 5604 5603 5603 5602 5601 5600 5600 5600 5600 5600 5600 5598 5598 5595 5596 5596 5595 5594 5593 5593 5593 5592 5591
5610 5612 5610 5608 5607 5606 5605 5604 5602 5601 5598 5598 5597 5596 5595 5594 5593 5592 5591 5591 5590 5590 5590 5590 5590 5590 5589 5589 5588 5584 5586 5586 5585 5585 5584 5585 5584 5583
5606 5605 5603 5601 5600 5598 5597 5595 5594 5592 5590 5588 5587 5586 5585 5584 5583 5582 5582 5580 5580 5580 5581 5581 5580 5580 5579 5580 5580 5578 5575 5576 5576 5575 5575 5574 5574 5572
5600 5597 5595 5594 5592 5590 5588 5586 5584 5583 5581 5579 5578 5576 5575 5575 5574 5573 5573 5568 5568 5570 5571 5571 5571 5568 5569 5569 5570 5571 5569 5565 5566 5565 5566 5566 5566 5566
5591 5589 5586 5584 5582 5580 5578 5577 5576 5574 5573 5571 5570 5569 5568 5567 5566 5564 5564 5563 5563 5563 5563 5563 5563 5563 5563 5563 5563 5562 5562 5559 5556 5555 5554 5555 5557 5558
5582 5580 5577 5575 5572 5570 5569 5567 5566 5566 5565 5564 5563 5561 5560 5559 5558 5558 5557 5556 5556 5555 5555 5555 5555 5556 5556 5555 5555 5555 5553 5553 5552 5551 5550 5547 5546 5546